Regional Weather Roundup
Issued by NWS

Home | Current Version | Previous Version | Text Only | Print | Product List | Glossary On
Versions: 1 2 3 4 5 6 7 8 9 10 11 12 13 14 15 16 17 18 19 20 21 22 23 24 25 26 27 28 29 30 31 32 33 34 35 36 37 38 39 40 41 42 43 44 45 46 47 48 49 50
000
ASUS44 KJAN 010710
RWRMS

MISSISSIPPI HOURLY WEATHER ROUNDUP
NATIONAL WEATHER SERVICE JACKSON MS
200 AM CDT SUN MAY 01 2016

NOTE: "FAIR: INDICATES FEW OR NO CLOUDS BELOW 12,000 FEET WITH NO
SIGNIFICANT WEATHER AND/OR OBSTRUCTIONS TO VISIBILITY.

MSZ001>002-007>008-010>013-018>021-025>028-034>036-010800-
NORTHWEST MISSISSIPPI

CITY           SKY/WX    TMP DP  RH WIND       PRES   REMARKS
BATESVILLE     FAIR      62  61  97 CALM      29.87S FOG
CLEVELAND      CLOUDY    68  68 100 S6        29.86R
GREENWOOD      CLOUDY    67  63  87 S5        29.87S
GREENVILLE     CLEAR     68  64  87 S5        29.86R
OLIVE BRANCH   CLEAR     63 N/A N/A S5        29.87S
OXFORD         CLOUDY    64  63  94 S5        29.89F
TUNICA         SUNNY     64  63  94 SE6       29.86S
WINONA         CLOUDY    65  63  94 S3        29.87F
$$

MSZ003>006-009-014>017-022>024-029>033-037>039-010800-
NORTHEAST MISSISSIPPI

CITY           SKY/WX    TMP DP  RH WIND       PRES   REMARKS
COLUMBUS AFB   MOCLDY    65  62  92 SE5       29.90F
CORINTH        FAIR      64  64 100 S6        29.88F
GOLDN TRIANGLE CLOUDY    64  61  88 SE6       29.90F
STARKVILLE     PTSUNNY   63  61  94 CALM      29.89F
TUPELO         PTCLDY    65  61  87 SE5       29.89S
$$

MSZ040-058-010800-
CENTRAL MISSISSIPPI

CITY           SKY/WX    TMP DP  RH WIND       PRES   REMARKS
JACKSON INTL   MOCLDY    67  63  87 S6        29.89S
JACKSON HAWKNS CLOUDY    66  63  90 SE5       29.89S
MADISON        PTSUNNY   64  63  94 CALM      29.89S
MERIDIAN KEY   MOCLDY    63  61  93 S3        29.91S
MERIDIAN NAS   CLOUDY    66  62  87 CALM      29.91F
VICKSBURG TVR  MOCLDY    71  66  84 SE8       29.86F
VICKSBURG VKS  CLOUDY    70  66  88 SE3       29.87F
$$

MSZ059>079-010800-
SOUTH MISSISSIPPI

CITY           SKY/WX    TMP DP  RH WIND       PRES   REMARKS
BROOKHAVEN     PTSUNNY  N/A N/A N/A SE3       29.90S
COLUMBIA       FOG       63  61  94 CALM      29.93S VSB 1/2
HATTIESBURG    CLEAR     64  62  93 CALM      29.91F
MCCOMB         CLOUDY    67  66  97 S6        29.89S
NATCHEZ        CLOUDY    72  64  78 S7        29.87S
PINE BELT      CLEAR     63  59  88 CALM      29.91S
$$

MSZ080>082-010800-
COASTAL MISSISSIPPI

CITY           SKY/WX    TMP DP  RH WIND       PRES   REMARKS
BILOXI         CLEAR     74  73  95 S7        29.89S
PASCAGOULA     PTCLDY    69  68  96 CALM      29.90S
GULFPORT       CLEAR     74  70  87 SE9       29.88F
$$



USA.gov is the U.S. government's official web portal to all federal, state and local government web resources and services.